www.pogodaiklimat.ru

АРХИВ ПОГОДЫ в Краснодаре

Время (UTC), дата Ветер
(напр.,м/с)
 
Видим.   Явления Облачность Т
(С)
Тd
(С)
f
(%)
Тe
(С)
Тes
(С)
Комфортность P
(гПа)
Po
(гПа)
Тmin
(С)
Tmax
(С)
R
(мм)
S
(см)
15 18.08 ЮЗ 3 10 км 8/1 1000 м
[Sc diur, vesp Ac trans Ci fib]
+29.5 +17.3 48 +34 +34 очень
душно
1010.9 1007.5 +30.9
18 18.08 З 1 10 км 9/0
[As op Ci fib]
+26.5 +18.0 60 +31 +31 душно 1012.1 1008.7
21 18.08 ЮЗ 1 10 км ясно +23.5 +19.3 77 +28 +28 душно 1012.4 1008.9
00 19.08 Ю 1 н/о н/о +21.7 +18.9 84 +27 +27 душно 1012.9 1009.4
03 19.08 штиль 0 10 км 8/4 1000 м
[Sc diur, vesp Ac trans Ci fib]
+21.6 +19.0 85 +26 +27 душно 1013.4 1009.9 +21.0
06 19.08 штиль 0 10 км 3/0
[Ac cast]
+27.5 +18.6 58 +32 +40 очень
душно
1013.2 1009.8
09 19.08 В 3 10 км 3/3 1000 м
[Cu hum]
+31.3 +16.1 40 +34 +43 душно 1012.7 1009.3
12 19.08 СВ 2 10 км 1/1 1000 м
[Cu hum]
+33.5 +15.2 33 +35 +45 душно 1012.1 1008.7
15 19.08 В 3 10 км 1/1 1000 м
[Sc diur, vesp]
+32.7 +16.2 37 +35 +36 душно 1011.7 1008.3 +34.1
18 19.08 СВ 2 н/о н/о +29.1 +16.9 48 +33 +33 очень
душно
1012.4 1009.0
21 19.08 СВ 2 10 км ясно +26.7 +17.7 58 +31 +31 душно 1012.4 1009.0
00 20.08 В 1 10 км ясно +24.4 +18.2 68 +29 +29 душно 1012.9 1009.4
03 20.08 СВ 1 10 км ясно +23.5 +17.5 69 +27 +28 душно 1013.3 1009.8 +23.4
06 20.08 В 3 10 км ясно +28.6 +17.6 51 +33 +39 очень
душно
1013.5 1010.1
09 20.08 В 3 10 км ясно +34.6 +14.9 31 +36 +49 душно 1012.7 1009.4
12 20.08 В 3 10 км ясно +36.2 +15.3 29 +38 +46 очень
душно
1011.9 1008.6
15 20.08 СВ 3 10 км ясно +34.9 +16.0 32 +37 +38 очень
душно
1011.5 1008.2 +36.6
18 20.08 СВ 2 10 км ясно +31.0 +10.5 28 +31 +31 жарко 1012.3 1009.0
21 20.08 СВ 2 10 км ясно +27.6 +13.3 41 +29 +29 жарко 1011.9 1008.5
00 21.08 ЮВ 1 10 км 3/0
[Ci fib]
+24.5 +13.9 52 +27 +27 жарко 1012.2 1008.8
03 21.08 В 2 10 км 9/0
[Ac trans]
+23.4 +15.8 62 +28 +28 душно 1012.7 1009.3 +23.3
06 21.08 В 3 10 км 10/0
[Ac As Ci fib]
+25.7 +15.9 55 +29 +32 душно 1013.1 1009.6
09 21.08 В 3 10 км 5/0
[Ac trans Ci fib]
+31.9 +17.0 41 +35 +46 очень
душно
1012.2 1008.8
12 21.08 В 2 10 км 10/0
[Ac As Ci fib]
+34.8 +17.6 36 +38 +42 очень
душно
1011.5 1008.1
15 21.08 В 2 10 км 10/0
[Ac As Ci fib]
+34.7 +15.0 31 +36 +37 душно 1010.2 1006.9 +35.1
18 21.08 СВ 1 10 км 6/0
[Ci fib]
+31.5 +12.7 32 +32 +32 жарко 1010.7 1007.4
21 21.08 ЮВ 1 10 км 8/0
[Ci fib]
+27.3 +12.4 40 +29 +29 жарко 1010.7 1007.2
00 22.08 В 2 10 км 10/0
[Ac As Ci fib]
+25.9 +11.1 40 +27 +27 жарко 1010.3 1006.9
03 22.08 В 2 10 км 10/0
[Ac und]
+24.1 +11.5 45 +26 +26 жарко 1010.5 1007.0 +24.1
06 22.08 В 2 10 км 10/9 1000 м
[Sc Ac As]
+24.8 +14.8 54 +28 +28 жарко 1011.2 1007.7
09 22.08 В 2 10 км 10/8 1000 м
[Sc Ac As]
+27.7 +16.0 49 +31 +32 душно 1011.6 1008.2
12 22.08 В 3 10 км 9/0
[Ac trans Ci fib]
+35.0 +14.5 29 +36 +42 очень
жарко
1010.4 1007.1
15 22.08 СВ 2 10 км 10/0
[Ci fib]
+34.2 +13.4 29 +35 +36 очень
жарко
1009.2 1005.9 +35.6
18 22.08 В 1 10 км 8/0
[Ci fib]
+29.9 +15.3 41 +32 +32 жарко 1009.8 1006.4
21 22.08 В 2 10 км 10/6 1000 м
[Sc Ac trans Ci fib]
+28.2 +12.5 38 +30 +30 жарко 1010.2 1006.8
00 23.08 В 2 10 км 5/0
[Ci fib]
+26.2 +11.3 39 +27 +27 жарко 1010.7 1007.3
03 23.08 В 3 10 км 4/0
[Ci fib]
+23.9 +12.6 49 +26 +26 жарко 1011.5 1008.0 +23.9
06 23.08 СВ 2 10 км 9/6 1000 м
[Cu Sc Ac cast Ci sp]
+26.9 +16.0 51 +30 +32 душно 1012.3 1008.8 +23.9
09 23.08 СВ 1 10 км в посл. час гроза {ливн. осадки} 6/3 1000 м
[Sc Ac As Ci ing]
+30.9 +16.7 43 +34 +44 душно 1012.4 1009.0
12 23.08 СВ 1 10 км {гроза, ливн. осадки} 3/0
[Ac trans Cc]
+35.2 +15.1 30 +37 +47 очень
душно
1011.3 1008.0
15 23.08 штиль 0 10 км 8/4 1000 м
[Sc Ac cast Cc]
+33.4 +15.3 34 +35 +36 душно 1010.6 1007.2 +35.8
18 23.08 штиль 0 10 км 8/0
[Ac trans]
+29.2 +17.7 50 +34 +34 очень
душно
1010.7 1007.3
21 23.08 З 2 10 км 3/0
[Ac trans]
+26.9 +20.6 68 +33 +33 очень
душно
1010.8 1007.4
00 24.08 ЮЗ 2 10 км ясно +25.8 +21.0 75 +32 +32 очень
душно
1011.7 1008.3
03 24.08 штиль 0 10 км 3/3 1000 м
[Sc]
+24.7 +21.0 80 +31 +31 очень
душно
1012.1 1008.7 +24.7
06 24.08 Ю 1 10 км 1/1 1000 м
[Cu med, cong]
+28.9 +20.6 61 +36 +43 очень
душно
1012.6 1009.2 +24.5
09 24.08 Ю 2 10 км 6/6 1000 м
[Cb calv]
+31.5 +19.0 47 +37 +42 очень
душно
1011.4 1008.0
12 24.08 З 2 10 км {гроза} 6/6 1000 м
[Cb cap]
+33.1 +19.1 44 +38 +42 очень
душно
1010.1 1006.7
15 24.08 З 2 10 км 4/4 600 м
[Cb cap]
+31.0 +18.7 48 +36 +37 очень
душно
1009.7 1006.3 +33.8
18 24.08 З 2 10 км 5/5 1000 м
[Cb cap]
+28.3 +18.8 56 +33 +33 очень
душно
1011.4 1008.0
21 24.08 Ю 1 10 км ясно +24.9 +19.8 73 +30 +30 душно 1010.5 1007.1
00 25.08 ЮЗ 1 10 км ясно +23.6 +20.1 81 +29 +29 душно 1010.7 1007.2
03 25.08 ЮЗ 1 10 км 9/1 1000 м
[Sc Ci fib]
+23.6 +19.9 80 +29 +29 душно 1010.8 1007.3 +23.3
06 25.08 ЮЗ 2 10 км 1/0
[Ac trans]
+28.0 +19.7 61 +34 +40 очень
душно
1011.3 1007.9
09 25.08 З 3 10 км 9/3 1000 м
[Cu med, cong Ci]
+30.7 +16.8 43 +34 +41 очень
душно
1011.1 1007.7
12 25.08 З 2 10 км 9/3 1000 м
[Cu med, cong Ac trans Ci fib]
+32.2 +15.6 37 +35 +38 очень
душно
1010.9 1007.5

 

Местоположение метеостанции Краснодар (Краснодарский край, Россия): широта 45.05 долгота 39.03 высота над уровнем моря 29 м.

В архиве по умолчанию представлена погода в Краснодаре за последнюю неделю. Архивные данные за месяц целиком и за предыдущие месяцы, начиная с января 2011 года, Вы можете получить, выбрав интересующий диапазон дат из раскрывающегося списка и нажав кнопку "Ввод!".

Внимание! Время в таблицах - всемирное. Для получения местного времени необходимо прибавить поправку, которая в Краснодаре равна 3 ч.

Ветер - указаны скорость ветра в м/с - средняя за 10 мин, порывы в срок и между сроками (в фигурных скобках) и направление, откуда дует ветер: С - северный, СВ - северо-восточный, В - восточный, ЮВ - юго-восточный, Ю - южный, ЮЗ - юго-западный, З - западный, СЗ - северо-западный.
Видимость - горизонтальная дальность видимости в метрах или километрах. При видимости от 1 до 10 км при отсутствии осадков обычно наблюдается дымка, при ухудшении видимости до 1 км и менее - туман. В сухую погоду видимость может ухудшаться дымом, пылью или мглою.
Явления - указаны атмосферные явления, наблюдавшиеся в срок или в последний час перед сроком; фигурными скобками обозначены явления, наблюдавшиеся между сроками (за 1-3 часа до срока); квадратными скобками обозначены град или гололедные отложения с указанием их диаметра в мм.
Облачность - указаны через наклонную черту общая и нижняя облачность в баллах и высота нижней границы облаков в метрах; квадратными скобками обозначены формы облаков: Ci - перистые, Cs - перисто-слоистые, Cc - перисто-кучевые, Ac - высококучевые, As - высокослоистые, Sc - слоисто-кучевые, Ns - слоисто-дождевые, Cu - кучевые, Cb - кучево-дождевые. Подробнее классификацию облаков см. в Атласе облаков (PDF).
T - Температура воздуха - температура, измеренная на высоте 2 м над землей.
Td - Температура точки росы - температура, при понижении до которой содержащийся в воздухе водяной пар достигнет насыщения.
f - Относительная влажность воздуха - влажноcть воздуха, измеренная на высоте 2 м над землей.
Te - Эффективная температура - температура, которую ощущает одетый по сезону человек в тени. Характеристика душности погоды. При расчете учитывается влияние влажности воздуха и скорости ветра на теплоощущения человека.
Tes - Эффективная температура на солнце - температура, которую ощущает человек, с поправкой на солнечный нагрев. Характеристика знойности погоды. Зависит от высоты солнца над горизонтом, облачности и скорости ветра. Ночью, в пасмурную погоду, а также при ветре 12 м/с и более поправка равна нулю.
P - Атмосферное давление - приведенное к уровню моря атмосферное давление.
Po - Атмосферное давление - измеренное на уровне метеостанции атмосферное давление.
Tmin - Минимальная температура - минимум температуры воздуха на высоте 2 м над землей.
Tmax - Максимальная температура - максимум температуры воздуха на высоте 2 м над землей.
R - Количество осадков - Количество выпавших осадков, мм. При наведении курсора мыши на число - период времени, за который выпало указанное количество осадков.
S - Снежный покров - Высота снежного покрова, см. При наведении курсора мыши на число - состояние снежного покрова и степень покрытия местности в баллах.